Location: Bad Rothenbrunn
(47.2167°N, 11.2167°E)
Time: 08:38:03
(UTC+00:00)

Cosmos 2074 Rocket - Pass Details

Date: 03 March 2021
Orbit: 966 x 987 km, 82.9° (Epoch: 14 April)

Event Time Altitude Azimuth Distance (km) Brightness Sun altitude
Rises 17:33:31 0° 181° (S) 3,676 7.1 -5.9°
Reaches altitude 10° 17:36:01 10° 180° (S) 2,730 6.4 -6.3°
Maximum altitude 17:42:16 77° 96° (E) 1,009 4.0 -7.4°
Drops below altitude 10° 17:48:32 10° 11° (NNE) 2,735 6.2 -8.4°
Sets 17:51:03 0° 11° (N) 3,683 6.9 -8.9°
